This demonstration page uses our WeatherBlox Daily Observations layout. Learn more.

Hourly Observations for February 8, 2020

Temp ( °F °C ) Dew Point ( °F °C ) Humidity (%) Winds ( mph kmh ) Pressure ( in mb ) Visibility ( mi km ) Precip ( " mm )
12:15 am 00:15 Clear 32 0 25 -4 75 75 WNW 18 30 29.98 1015 10 16.0934 0 0
12:35 am 00:35 Clear 32 0 25 -4 75 75 WNW 18 30 29.99 1016 10 16.0934 0 0
12:55 am 00:55 Clear 32 0 23 -5 69 69 WNW 16 26 30.01 1016 10 16.0934 0 0
1:15 am 01:15 Clear 32 0 23 -5 69 69 WNW 13 20 30.02 1017 10 16.0934 0 0
1:35 am 01:35 Clear 32 0 23 -5 69 69 W 7 11 30.03 1017 10 16.0934 0 0
1:55 am 01:55 Clear 32 0 23 -5 69 69 WNW 13 20 30.04 1017 10 16.0934 0 0
2:15 am 02:15 Clear 32 0 23 -5 69 69 WNW 16 26 30.06 1018 10 16.0934 0 0
2:35 am 02:35 Clear 32 0 23 -5 69 69 WNW 15 24 30.07 1018 10 16.0934 0 0
2:55 am 02:55 Clear 32 0 23 -5 69 69 WNW 13 20 30.08 1019 10 16.0934 0 0
3:15 am 03:15 Clear 32 0 21 -6 64 64 WNW 17 28 30.09 1019 10 16.0934 0 0
3:35 am 03:35 Clear 32 0 21 -6 64 64 WNW 12 19 30.11 1020 10 16.0934 0 0
3:55 am 03:55 Clear 32 0 21 -6 64 64 WNW 12 19 30.12 1020 10 16.0934 0 0
4:15 am 04:15 Clear 32 0 21 -6 64 64 WNW 9 15 30.13 1020 10 16.0934 0 0
4:35 am 04:35 Clear 32 0 21 -6 64 64 W 6 9 30.15 1021 10 16.0934 0 0
4:55 am 04:55 Clear 32 0 21 -6 64 64 W 5 7 30.15 1021 10 16.0934 0 0
5:15 am 05:15 Clear 30 -1 21 -6 69 69 W 5 7 30.16 1021 10 16.0934 0 0
5:35 am 05:35 Clear 28 -2 21 -6 74 74 W 6 9 30.18 1022 10 16.0934 0 0
5:55 am 05:55 Partly Cloudy 28 -2 21 -6 74 74 W 6 9 30.19 1022 10 16.0934 0 0
6:15 am 06:15 Cloudy 30 -1 21 -6 69 69 W 5 7 30.19 1022 10 16.0934 0 0
6:35 am 06:35 Cloudy 30 -1 21 -6 69 69 SSW 5 7 30.2 1023 10 16.0934 0 0
6:55 am 06:55 Cloudy 30 -1 21 -6 69 69 SSW 5 7 30.2 1023 10 16.0934 0 0
7:15 am 07:15 Partly Cloudy 30 -1 21 -6 69 69 SSW 7 11 30.22 1023 10 16.0934 0 0
7:35 am 07:35 Sunny 28 -2 21 -6 74 74 SSW 6 9 30.23 1024 10 16.0934 0 0
7:55 am 07:55 Partly Cloudy 30 -1 21 -6 69 69 SW 5 7 30.23 1024 10 16.0934 0 0
8:15 am 08:15 Partly Cloudy 32 0 21 -6 64 64 WSW 5 7 30.24 1024 10 16.0934 0 0
8:35 am 08:35 Mostly Cloudy 32 0 23 -5 69 69 WSW 7 11 30.25 1024 10 16.0934 0 0
9:15 am 09:15 Partly Cloudy 36 2 23 -5 60 60 WSW 9 15 30.26 1025 10 16.0934 0 0
9:35 am 09:35 Sunny 36 2 23 -5 60 60 WSW 7 11 30.26 1025 10 16.0934 0 0
9:55 am 09:55 Sunny 37 3 21 -6 52 52 W 10 17 30.27 1025 10 16.0934 0 0
10:15 am 10:15 Sunny 37 3 21 -6 52 52 WSW 7 11 30.27 1025 10 16.0934 0 0
10:35 am 10:35 Partly Cloudy 37 3 21 -6 52 52 W 9 15 30.27 1025 10 16.0934 0 0
10:55 am 10:55 Cloudy 37 3 23 -5 56 56 W 8 13 30.28 1025 10 16.0934 0 0
11:15 am 11:15 Cloudy 39 4 23 -5 52 52 WSW 10 17 30.28 1025 10 16.0934 0 0
11:35 am 11:35 Cloudy 37 3 21 -6 52 52 W 10 17 30.28 1025 10 16.0934 0 0
11:55 am 11:55 Cloudy 39 4 23 -5 52 52 W 6 9 30.28 1025 10 16.0934 0 0
12:15 pm 12:15 Cloudy 43 6 23 -5 46 46 S 10 17 30.26 1025 10 16.0934 0 0
12:35 pm 12:35 Cloudy 41 5 21 -6 45 45 WSW 8 13 30.23 1024 10 16.0934 0 0
12:55 pm 12:55 Cloudy 43 6 21 -6 42 42 SSW 6 9 30.23 1024 10 16.0934 0 0
1:15 pm 13:15 Mostly Cloudy 41 5 21 -6 45 45 SW 6 9 30.24 1024 10 16.0934 0 0
1:35 pm 13:35 Cloudy 41 5 21 -6 45 45 W 5 7 30.23 1024 10 16.0934 0 0
2:15 pm 14:15 Cloudy 43 6 21 -6 42 42 SSW 10 17 30.22 1023 10 16.0934 0 0
2:35 pm 14:35 Cloudy 43 6 21 -6 42 42 SW 8 13 30.23 1024 10 16.0934 0 0
2:55 pm 14:55 Cloudy 43 6 21 -6 42 42 SSW 9 15 30.23 1024 10 16.0934 0 0
3:15 pm 15:15 Cloudy 41 5 23 -5 49 49 SSW 5 7 30.23 1024 10 16.0934 0 0
3:35 pm 15:35 Cloudy 43 6 21 -6 42 42 SSW 6 9 30.22 1023 10 16.0934 0 0
3:55 pm 15:55 Cloudy 43 6 23 -5 46 46 S 13 20 30.22 1023 10 16.0934 0 0
4:15 pm 16:15 Cloudy 43 6 21 -6 42 42 S 8 13 30.24 1024 10 16.0934 0 0
4:35 pm 16:35 Cloudy 41 5 23 -5 49 49 S 9 15 30.24 1024 10 16.0934 0 0
4:55 pm 16:55 Partly Cloudy 43 6 21 -6 42 42 S 9 15 30.24 1024 10 16.0934 0 0
5:15 pm 17:15 Sunny 41 5 23 -5 49 49 S 9 15 30.25 1025 10 16.0934 0 0
5:35 pm 17:35 Sunny 41 5 23 -5 49 49 S 5 7 30.25 1025 10 16.0934 0 0
5:55 pm 17:55 Clear 39 4 23 -5 52 52 S 5 7 30.27 1025 10 16.0934 0 0
6:15 pm 18:15 Clear 39 4 23 -5 52 52 S 5 7 30.28 1025 10 16.0934 0 0
6:35 pm 18:35 Clear 37 3 23 -5 56 56 S 6 9 30.28 1025 10 16.0934 0 0
6:55 pm 18:55 Clear 37 3 23 -5 56 56 S 6 9 30.28 1025 10 16.0934 0 0
7:15 pm 19:15 Clear 37 3 23 -5 56 56 S 6 9 30.29 1026 10 16.0934 0 0
7:35 pm 19:35 Clear 37 3 23 -5 56 56 S 5 7 30.3 1026 10 16.0934 0 0
7:55 pm 19:55 Clear 36 2 23 -5 60 60 S 6 9 30.29 1026 10 16.0934 0 0
8:15 pm 20:15 Clear 36 2 25 -4 65 65 S 5 7 30.3 1026 10 16.0934 0 0
8:35 pm 20:35 Clear 32 0 25 -4 75 75 S 5 7 30.3 1026 10 16.0934 0 0
8:55 pm 20:55 Partly Cloudy 34 1 25 -4 70 70 S 6 9 30.31 1026 10 16.0934 0 0
9:15 pm 21:15 Cloudy 30 -1 27 -3 86 86 S 5 7 30.31 1027 10 16.0934 0 0
9:35 pm 21:35 Cloudy 32 0 27 -3 80 80 S 3 6 30.32 1027 10 16.0934 0 0
9:55 pm 21:55 Mostly Cloudy 30 -1 27 -3 86 86 S 3 6 30.32 1027 10 16.0934 0 0
10:15 pm 22:15 Mostly Cloudy 30 -1 27 -3 86 86 Calm 30.33 1027 10 16.0934 0 0
10:35 pm 22:35 Mostly Cloudy 32 0 27 -3 80 80 Calm 30.33 1027 10 16.0934 0 0
10:55 pm 22:55 Mostly Cloudy 30 -1 27 -3 86 86 Calm 30.33 1027 10 16.0934 0 0
11:15 pm 23:15 Cloudy 30 -1 27 -3 86 86 Calm 30.34 1028 10 16.0934 0 0
11:35 pm 23:35 Mostly Cloudy 30 -1 27 -3 86 86 Calm 30.34 1028 10 16.0934 0 0
11:55 pm 23:55 Mostly Cloudy 30 -1 27 -3 86 86 Calm 30.35 1028 10 16.0934 0 0

Powered by AerisWeather